Regional Weather Roundup
Issued by NWS

Home | Current Version | Previous Version | Graphics & Text | Print | Product List | Glossary On
Versions: 1 2 3 4 5 6 7 8 9 10 11 12 13 14 15 16 17 18 19 20 21 22 23 24 25 26 27 28 29 30 31 32 33 34 35 36 37 38 39 40 41 42 43 44 45 46 47 48 49 50
000
ASUS43 KLMK 211102
RWRKY
KENTUCKY REGIONAL WEATHER ROUNDUP
NATIONAL WEATHER SERVICE LOUISVILLE KY
700 AM EDT SAT APR 21 2018

NOTE "FAIR" INDICATES FEW OR NO CLOUDS BELOW 12,000 FEET
WITH NO SIGNIFICANT WEATHER AND/OR OBSTRUCTIONS TO VISIBILITY.

KYZ001>023-026-027-061>063-070>075-211200-
WESTERN AND SOUTH CENTRAL KENTUCKY

CITY           SKY/WX    TMP DP  RH WIND       PRES   REMARKS
PADUCAH        FAIR      43  33  68 NE5       30.29S
HENDERSON      FAIR      42  32  67 E6        30.34S
OWENSBORO      FAIR      46  27  47 E7        30.35R
HOPKINSVILLE   FAIR      45  30  55 E6        30.29F
BOWLING GREEN  FAIR      42  31  64 NE3       30.33R
GLASGOW        NOT AVBL
$$

KYZ024-025-028>034-038-045-046-053-211200-
NORTH CENTRAL KENTUCKY

CITY           SKY/WX    TMP DP  RH WIND       PRES   REMARKS
LOUISVILLE/SDF FAIR      45  26  47 E7        30.38R
LOUISVILLE/LOU FAIR      43  27  53 E8        30.38S
FORT KNOX      FAIR      43  26  49 NE5       30.36R
$$

KYZ035>037-039>044-047>052-055>060-089>105-211200-
NORTHEAST KENTUCKY

CITY           SKY/WX    TMP DP  RH WIND       PRES   REMARKS
LEXINGTON      FAIR      43  25  49 E10       30.38S
COVINGTON      FAIR      41  24  51 E9        30.41R
FRANKFORT      FAIR      40  25  55 E7        30.37S
$$

KYZ054-064>069-076>088-106>120-211200-
SOUTHEAST KENTUCKY

CITY           SKY/WX    TMP DP  RH WIND       PRES   REMARKS
JACKSON        FAIR      41  23  48 NE5       30.38S
LONDON         FAIR      38  25  59 N3        30.36R
SOMERSET       NOT AVBL
MIDDLESBORO    FAIR      32  31  96 CALM      30.38S
MONTICELLO     FAIR      29  26  89 CALM      30.36S
$$




USA.gov is the U.S. government's official web portal to all federal, state and local government web resources and services.